Flag for Germany Weather past 2 weeks in Wiehl, North Rhine-Westphalia, Germany

Now
88 °F

Sunny.


Feels Like: 87 °F
Forecast: 54 / 65 °F
Wind: 8 mph from South

Location: Koeln / Bonn

Current Time: Jul 7, 2015 at 1:52:40 PM

Latest Report: Jul 7, 2015 at 1:20 PM


Visibility: 10 mi

Pressure: 29.80 "Hg

Humidity: 35%

Dew point: 57 °F

Location of WiehlLocation

Historic Weather in Wiehl — Graph

°F

Wiehl temperature yesterday

Maximum temperature yesterday: 79 °F (at 4:50 PM)
Minimum temperature yesterday: 57 °F (at 6:20 AM)
Average temperature yesterday: 68 °F

Past Weeks' High & Low Weather Summary

 TemperatureHumidityPressure
High97 °F (Jul 2, 4:20 PM)94% (Jun 22, 5:20 PM)30.24 "Hg (Jun 22, 5:20 PM)
Low48 °F (Jun 22, 11:50 PM)17% (Jun 30, 3:50 PM)29.68 "Hg (Jun 22, 9:20 PM)
Average70 °F62%30.08 "Hg
* Reported Jun 22 12:20 PM — Jul 7 12:50 PM, Wiehl, Weather by CustomWeather, © 2015

Note: Actual official high and low records may vary slightly from our data, if they occured in-between our weather recording intervals... More about our weather records

Advertising

Wiehl weather history for previous 24 hours

 ConditionsComfort  
Time TempWeatherWind HumidityBarometerVisibility
12:50 PM
Tue, Jul 7
88 °FSunny.9 mph31%29.83 "Hg10 mi
12:20 PM86 °FSunny.7 mph33%29.83 "Hg10 mi
11:50 AM84 °FSunny.8 mph35%29.83 "Hg10 mi
11:20 AM84 °FSunny.8 mph37%29.86 "Hg10 mi
10:50 AM81 °FSunny.9 mph39%29.86 "Hg10 mi
10:20 AM79 °FSunny.8 mph45%29.89 "Hg10 mi
9:50 AM75 °FSunny.8 mph44%29.89 "Hg10 mi
9:20 AM73 °FSunny.7 mph50%29.89 "Hg10 mi
8:50 AM72 °FSunny.8 mph50%29.92 "Hg10 mi
8:20 AM70 °FSunny.6 mph57%29.92 "Hg10 mi
7:50 AM66 °FSunny.5 mph60%29.92 "Hg10 mi
7:20 AM64 °FSunny.6 mph64%29.95 "Hg10 mi
6:50 AM61 °FSunny.5 mph72%29.95 "Hg10 mi
6:20 AM57 °FClear.2 mph82%29.95 "Hg10 mi
5:50 AM55 °FClear.3 mph88%29.98 "Hg10 mi
5:20 AM55 °FClear.3 mph82%29.98 "Hg10 mi
4:50 AM55 °FClear.2 mph82%29.98 "Hg10 mi
4:20 AM55 °FClear.2 mph82%29.98 "Hg10 mi
3:50 AM55 °FClear.3 mph82%30.01 "Hg10 mi
3:20 AM57 °FClear.2 mph82%30.01 "Hg10 mi
2:50 AM55 °FClear.6 mph88%30.01 "Hg10 mi
2:20 AM57 °FClear.3 mph82%30.01 "Hg10 mi
1:50 AM59 °FClear.3 mph77%30.04 "Hg10 mi
1:20 AM57 °FClear.2 mph77%30.04 "Hg10 mi
12:50 AM61 °FClear.3 mph72%30.04 "Hg10 mi
12:20 AM61 °FClear.2 mph77%30.07 "Hg10 mi
11:50 PM
Mon, Jul 6
61 °FPassing clouds.5 mph72%30.07 "HgN/A
11:20 PM64 °FClear.3 mph68%30.07 "Hg10 mi
10:50 PM66 °FClear.6 mph64%30.07 "Hg10 mi
10:20 PM68 °FSunny.5 mph60%30.07 "Hg10 mi
9:50 PM70 °FSunny.3 mph57%30.07 "Hg10 mi
9:20 PM73 °FSunny.3 mph50%30.07 "Hg10 mi
8:50 PM75 °FSunny.5 mph39%30.07 "Hg10 mi
8:20 PM77 °FSunny.5 mph36%30.07 "Hg10 mi
7:50 PM77 °FSunny.6 mph36%30.07 "Hg10 mi
7:20 PM79 °FSunny.2 mph32%30.09 "Hg10 mi
6:50 PM79 °FSunny.3 mph32%30.09 "Hg10 mi
6:20 PM79 °FPassing clouds.6 mph34%30.09 "HgN/A
5:50 PM79 °FPassing clouds.5 mph37%30.12 "HgN/A
5:20 PM77 °FPassing clouds.6 mph39%30.12 "HgN/A
4:50 PM79 °FPassing clouds.5 mph34%30.12 "HgN/A
4:20 PM77 °FSunny.6 mph36%30.12 "Hg10 mi
3:50 PM77 °FSunny.7 mph36%30.15 "Hg10 mi
3:20 PM77 °FPassing clouds.7 mph34%30.15 "HgN/A
2:50 PM75 °FPassing clouds.6 mph36%30.15 "HgN/A
2:20 PM75 °FPassing clouds.7 mph36%30.15 "HgN/A
1:50 PM75 °FSunny.9 mph39%30.15 "Hg10 mi
1:20 PM75 °FSunny.10 mph39%30.18 "Hg10 mi
Weather by CustomWeather, © 2015

See weather overviewHow to use our weather pages